Fairfield, IL

2:43 PM CST on December 06, 2019 (GMT -0600)
Fairfield Municipal

Weather History for KFWC - October, 2019

Change the Weather History Date:

Thursday, October 10, 2019

  Actual Average (WUND) Record (WUND)
Temperature  
Mean Temperature 69 °F -  
Max Temperature 83 °F - - (-1)
Min Temperature 55 °F - - (-1)
Cooling Degree Days 4    
Growing Degree Days 19 (Base 50)    
Moisture  
Dew Point 61 °F    
Average Humidity 79    
Maximum Humidity 100    
Minimum Humidity 46    
Precipitation  
Precipitation 0.00 in - - ()
Sea Level Pressure  
Sea Level Pressure 30.00 in    
Wind  
Wind Speed 1 mph ()    
Max Wind Speed 8 mph    
Max Gust Speed -    
Visibility 9.7 miles    
Events      
Averages and records for this station are not official NWS values.
T = Trace of Precipitation, MM = Missing Value Source: Averaged Metar Reports

Daily Weather History Graph

Daily Weather History Graph

Search for Another Location

Airport or City:

Astronomy

Oct. 10, 2019 Rise Set
Actual Time 6:57 AM CDT 6:23 PM CDT
Civil Twilight 6:31 AM CDT 6:49 PM CDT
Nautical Twilight 6:00 AM CDT 7:20 PM CDT
Astronomical Twilight 5:29 AM CDT 7:50 PM CDT
Moon 5:21 PM CDT (10/10) 3:44 AM CDT (10/10)
Length of Visible Light 12h 18m
Length of Day
11h 25m
Waxing Gibbous, 91% of the Moon is Illuminated
Oct 10
Waxing Gibbous
Oct 13
Full
Oct 21
Last Quarter
Oct 27
New
Nov 4
First Quarter

Hourly Weather History & Observations

Time (CDT) Temp. Heat Index Dew Point Humidity Pressure Visibility Wind Dir Wind Speed Gust Speed Precip Events Conditions
12:15 AM 59.0 °F - 57.0 °F 93% 30.05 in 10.0 mi Calm Calm - N/A   Clear
12:35 AM 58.3 °F - 57.2 °F 96% 30.05 in 10.0 mi Calm Calm - N/A   Clear
12:55 AM 58.1 °F - 57.4 °F 97% 30.05 in 10.0 mi Calm Calm - N/A   Clear
1:15 AM 58.1 °F - 57.7 °F 99% 30.05 in 10.0 mi Calm Calm - N/A   Scattered Clouds
1:35 AM 58.1 °F - 57.7 °F 99% 30.05 in 10.0 mi Calm Calm - N/A   Scattered Clouds
1:55 AM 57.4 °F - 57.4 °F 100% 30.05 in 10.0 mi Calm Calm - N/A   Scattered Clouds
2:15 AM 57.0 °F - 57.0 °F 100% 30.05 in 10.0 mi Calm Calm - N/A   Clear
2:35 AM 56.3 °F - 56.3 °F 100% 30.05 in 10.0 mi Calm Calm - N/A   Clear
2:55 AM 56.5 °F - 56.5 °F 100% 30.05 in 10.0 mi Calm Calm - N/A   Clear
3:15 AM 55.2 °F - 55.2 °F 100% 30.04 in 10.0 mi Calm Calm - N/A   Clear
3:35 AM 55.4 °F - 55.4 °F 100% 30.05 in 10.0 mi Calm Calm - N/A   Scattered Clouds
3:55 AM 55.8 °F - 55.8 °F 100% 30.05 in 7.0 mi Calm Calm - N/A   Mostly Cloudy
4:15 AM 55.4 °F - 55.4 °F 100% 30.05 in 10.0 mi Calm Calm - N/A   Mostly Cloudy
4:35 AM 55.4 °F - 55.4 °F 100% 30.05 in 7.0 mi Calm Calm - N/A   Clear
4:55 AM 55.4 °F - 55.4 °F 100% 30.04 in 7.0 mi Calm Calm - N/A   Clear
5:15 AM 55.6 °F - 55.6 °F 100% 30.04 in 7.0 mi Calm Calm - N/A   Clear
5:35 AM 55.6 °F - 55.6 °F 100% 30.04 in 10.0 mi Calm Calm - N/A   Clear
5:55 AM 56.3 °F - 56.3 °F 100% 30.04 in 10.0 mi Calm Calm - N/A   Clear
6:15 AM 56.1 °F - 56.1 °F 100% 30.04 in 10.0 mi Calm Calm - N/A   Mostly Cloudy
6:35 AM 55.8 °F - 55.8 °F 100% 30.03 in 10.0 mi Calm Calm - N/A   Scattered Clouds
6:55 AM 55.8 °F - 55.8 °F 100% 30.03 in 7.0 mi Calm Calm - N/A   Scattered Clouds
7:15 AM 56.1 °F - 56.1 °F 100% 30.04 in 7.0 mi Calm Calm - N/A   Scattered Clouds
7:35 AM 56.8 °F - 56.8 °F 100% 30.04 in 7.0 mi Calm Calm - N/A   Clear
7:55 AM 59.4 °F - 59.4 °F 100% 30.04 in 10.0 mi Calm Calm - N/A   Scattered Clouds
8:15 AM 61.2 °F - 60.4 °F 97% 30.05 in 10.0 mi ESE 3.5 mph - N/A   Scattered Clouds
8:35 AM 62.1 °F - 60.8 °F 96% 30.06 in 10.0 mi Calm Calm - N/A   Scattered Clouds
8:55 AM 63.3 °F - 61.2 °F 93% 30.06 in 10.0 mi Calm Calm - N/A   Clear
9:15 AM 64.8 °F - 61.9 °F 90% 30.06 in 10.0 mi Calm Calm - N/A   Scattered Clouds
9:35 AM 67.1 °F - 62.6 °F 85% 30.06 in 10.0 mi Calm Calm - N/A   Scattered Clouds
10:15 AM 69.6 °F - 63.1 °F 80% 30.05 in 10.0 mi SSE 3.5 mph - N/A   Scattered Clouds
10:35 AM 70.9 °F - 63.3 °F 77% 30.05 in 10.0 mi SSE 4.6 mph - N/A   Clear
10:55 AM 73.2 °F - 63.3 °F 71% 30.04 in 10.0 mi SSE 3.5 mph - N/A   Clear
11:15 AM 73.9 °F - 63.7 °F 70% 30.04 in 10.0 mi SSE 4.6 mph - N/A   Scattered Clouds
11:35 AM 75.0 °F - 64.2 °F 69% 30.04 in 10.0 mi SSE 3.5 mph - N/A   Clear
11:55 AM 75.7 °F - 64.0 °F 67% 30.04 in 10.0 mi South 4.6 mph - N/A   Scattered Clouds
12:15 PM 77.4 °F - 64.4 °F 64% 30.03 in 10.0 mi Calm Calm - N/A   Clear
12:35 PM 78.1 °F - 64.6 °F 63% 30.03 in 10.0 mi SSE 3.5 mph - N/A   Scattered Clouds
12:55 PM 78.1 °F - 64.6 °F 63% 30.01 in 10.0 mi SE 4.6 mph - N/A   Scattered Clouds
1:15 PM 80.2 °F 82.0 °F 64.8 °F 59% 30.00 in 10.0 mi SE 5.8 mph - N/A   Clear
1:35 PM 80.2 °F 81.9 °F 64.4 °F 58% 29.99 in 10.0 mi SE 6.9 mph - N/A   Scattered Clouds
1:55 PM 82.2 °F 83.8 °F 64.4 °F 55% 29.97 in 10.0 mi SE 6.9 mph - N/A   Mostly Cloudy
2:15 PM 81.5 °F 83.1 °F 64.2 °F 56% 29.96 in 10.0 mi SE 8.1 mph - N/A   Mostly Cloudy
2:35 PM 83.1 °F 84.4 °F 64.0 °F 52% 29.95 in 10.0 mi SSE 4.6 mph - N/A   Scattered Clouds
2:55 PM 83.1 °F 84.2 °F 63.1 °F 51% 29.95 in 10.0 mi SSE 5.8 mph - N/A   Scattered Clouds
3:15 PM 82.9 °F 83.5 °F 61.3 °F 48% 29.94 in 10.0 mi SSW 5.8 mph - N/A   Mostly Cloudy
3:35 PM 82.6 °F 83.1 °F 60.8 °F 48% 29.94 in 10.0 mi South 6.9 mph - N/A   Scattered Clouds
3:55 PM 82.9 °F 83.2 °F 60.3 °F 46% 29.94 in 10.0 mi South 5.8 mph - N/A   Scattered Clouds
4:15 PM 82.6 °F 83.1 °F 61.0 °F 48% 29.94 in 10.0 mi South 5.8 mph - N/A   Scattered Clouds
4:35 PM 82.4 °F 82.9 °F 60.8 °F 48% 29.94 in 10.0 mi South 3.5 mph - N/A   Scattered Clouds
4:55 PM 81.3 °F 82.5 °F 62.8 °F 53% 29.93 in 10.0 mi SE 3.5 mph - N/A   Scattered Clouds
5:15 PM 80.6 °F 81.9 °F 63.3 °F 55% 29.93 in 10.0 mi SSE 3.5 mph - N/A   Clear
5:35 PM 79.9 °F - 63.1 °F 56% 29.93 in 10.0 mi SE 3.5 mph - N/A   Clear
5:55 PM 77.2 °F - 63.5 °F 63% 29.93 in 10.0 mi Calm Calm - N/A   Clear
6:15 PM 75.4 °F - 63.5 °F 66% 29.93 in 10.0 mi Calm Calm - N/A   Clear
6:35 PM 74.1 °F - 63.9 °F 70% 29.93 in 10.0 mi Calm Calm - N/A   Clear
6:55 PM 71.6 °F - 63.5 °F 76% 29.93 in 10.0 mi Calm Calm - N/A   Scattered Clouds
7:15 PM 70.7 °F - 63.3 °F 77% 29.93 in 10.0 mi Calm Calm - N/A   Clear
7:35 PM 70.0 °F - 63.1 °F 79% 29.93 in 10.0 mi Calm Calm - N/A   Clear
7:55 PM 70.9 °F - 62.8 °F 75% 29.93 in 10.0 mi Calm Calm - N/A   Clear
8:15 PM 72.5 °F - 63.5 °F 73% 29.93 in 10.0 mi SE 3.5 mph - N/A   Clear
8:35 PM 73.4 °F - 64.0 °F 72% 29.93 in 10.0 mi SE 3.5 mph - N/A   Clear
8:55 PM 73.6 °F - 64.4 °F 73% 29.94 in 10.0 mi SSE 4.6 mph - N/A   Clear
9:15 PM 73.8 °F - 64.4 °F 72% 29.94 in 10.0 mi SSE 3.5 mph - N/A   Scattered Clouds
9:35 PM 73.8 °F - 64.6 °F 73% 29.95 in 10.0 mi SSE 3.5 mph - N/A   Scattered Clouds
9:55 PM 73.4 °F - 64.8 °F 74% 29.95 in 10.0 mi SSE 4.6 mph - N/A   Clear
10:15 PM 73.2 °F - 65.3 °F 76% 29.95 in 10.0 mi SSE 5.8 mph - N/A   Scattered Clouds
10:35 PM 73.2 °F - 65.3 °F 76% 29.96 in 10.0 mi SSE 4.6 mph - N/A   Mostly Cloudy
10:55 PM 72.5 °F - 65.5 °F 79% 29.96 in 10.0 mi SSE 3.5 mph - N/A   Scattered Clouds
11:15 PM 72.1 °F - 65.5 °F 79% 29.95 in 10.0 mi Calm Calm - N/A   Scattered Clouds
11:35 PM 71.8 °F - 65.5 °F 80% 29.95 in 10.0 mi SSE 4.6 mph - N/A   Mostly Cloudy
11:55 PM 72.0 °F - 65.7 °F 80% 29.94 in 10.0 mi SSE 4.6 mph - N/A   Mostly Cloudy